This is the latest recevied weather packets stored in our database for station/object K5RWS. If no packets are shown the sender has not sent any weather packets the latest 1 day(s).
| Time | Temp. | Humidity | Pressure | Rain* | Wind** | Luminosity | Snow |
|---|---|---|---|---|---|---|---|
| 1778043816 | 10.56° C | 66% | 1016.1 hPa | 0 mm | 0 m/s | 0 W/m² | - |
| 1778043513 | 10.56° C | 65% | 1016.1 hPa | 0 mm | 0 m/s | 0 W/m² | - |
| 1778043210 | 10.56° C | 65% | 1016 hPa | 0 mm | 0 m/s | 0 W/m² | - |
| 1778042907 | 10.56° C | 65% | 1016.2 hPa | 0 mm | 0.89 m/s, 343° | 0 W/m² | - |
| 1778042605 | 11.11° C | 65% | 1016 hPa | 0 mm | 0.89 m/s, 312° | 0 W/m² | - |
| 1778042302 | 10.56° C | 65% | 1016.2 hPa | 0 mm | 1.34 m/s, 312° | 0 W/m² | - |
| 1778041999 | 10.56° C | 66% | 1015.9 hPa | 0 mm | 1.79 m/s, 301° | 0 W/m² | - |
| 1778041697 | 10.56° C | 66% | 1015.9 hPa | 0 mm | 0.89 m/s, 332° | 0 W/m² | - |
| 1778041396 | 10.56° C | 68% | 1015.7 hPa | 0 mm | 1.34 m/s, 326° | 0 W/m² | - |
| 1778041095 | 10° C | 71% | 1015.7 hPa | 0 mm | 0.89 m/s, 309° | 0 W/m² | - |
| 1778040791 | 10° C | 72% | 1015.9 hPa | 0 mm | 0.45 m/s, 12° | 0 W/m² | - |
| 1778040488 | 10° C | 72% | 1016 hPa | 0 mm | 0.45 m/s, 317° | 0 W/m² | - |
| 1778040185 | 10° C | 72% | 1015.7 hPa | 0 mm | 0.45 m/s, 326° | 0 W/m² | - |
| 1778039882 | 10° C | 72% | 1015.9 hPa | 0 mm | 1.34 m/s, 332° | 0 W/m² | - |
| 1778039579 | 10° C | 72% | 1015.9 hPa | 0 mm | 0 m/s | 0 W/m² | - |
| 1778039276 | 10° C | 72% | 1015.9 hPa | 0 mm | 0.45 m/s, 90° | 0 W/m² | - |
| 1778038973 | 10° C | 72% | 1015.2 hPa | 0 mm | 0.89 m/s, 38° | 0 W/m² | - |
| 1778038670 | 10° C | 73% | 1015.5 hPa | 0 mm | 0.89 m/s, 36° | 0 W/m² | - |
| 1778038367 | 10° C | 73% | 1015.4 hPa | 0 mm | 0.89 m/s, 85° | 0 W/m² | - |
| 1778038064 | 10° C | 73% | 1015.2 hPa | 0 mm | 0.45 m/s, 44° | 0 W/m² | - |
| 1778037761 | 10° C | 73% | 1014.9 hPa | 0 mm | 0.89 m/s, 11° | 0 W/m² | - |
| 1778037457 | 10° C | 72% | 1014.8 hPa | 0 mm | 1.79 m/s, 299° | 0 W/m² | - |
| 1778037155 | 10° C | 72% | 1014.9 hPa | 0 mm | 2.68 m/s, 350° | 0 W/m² | - |
| 1778036853 | 10° C | 71% | 1014.8 hPa | 0 mm | 2.68 m/s, 313° | 0 W/m² | - |
| 1778036551 | 10° C | 71% | 1014.7 hPa | 0 mm | 5.81 m/s, 332° | 0 W/m² | - |
* Rain latest hour (hover to see other rain measurements)
** Current wind speed in m/s (hover to see current wind gust speed)